This demonstration page uses our WeatherBlox Daily Observations layout. Learn more.

Left ArrowRight Arrow

34.74481, -87.66753

Hourly Observations for March 5, 2022

Temp ( °F °C ) Dew Point ( °F °C ) Humidity (%) Winds ( mph kmh ) Pressure ( in mb ) Visibility ( mi km ) Precip ( " mm )
12:53 am 00:53 Clear 54 12.2 39 3.9 57 57 SSE 6 9 30.15 1021 10 16 0.00 0.00
1:53 am 01:53 Clear 59 15 40 4.4 49 49 SSE 8 13 30.14 1021 10 16 0.00 0.00
2:53 am 02:53 Clear 57 13.9 39 3.9 51 51 SSE 7 11 30.14 1021 10 16 0.00 0.00
3:53 am 03:53 Clear 53 11.7 40 4.4 61 61 ESE 3 6 30.16 1022 10 16 0.00 0.00
4:53 am 04:53 Clear 51 10.6 40 4.4 66 66 SE 9 15 30.16 1021 9 14 0.00 0.00
5:53 am 05:53 Clear 51 10.6 39 3.9 64 64 SE 7 11 30.19 1023 9 14 0.00 0.00
6:53 am 06:53 Mostly Sunny 54 12.2 41 5 62 62 SE 7 11 30.21 1023 8 13 0.00 0.00
7:53 am 07:53 Mostly Cloudy 58 14.4 44 6.7 60 60 SE 7 11 30.22 1024 8 13 0.00 0.00
8:53 am 08:53 Cloudy 62 16.7 48 8.9 60 60 S 9 15 30.23 1024 8 13 0.00 0.00
9:53 am 09:53 Cloudy 67 19.4 51 10.6 57 57 S 10 17 30.22 1023 9 14 0.00 0.00
10:53 am 10:53 Mostly Cloudy 74 23.3 55 12.8 52 52 S 17 28 30.19 1022 10 16 0.00 0.00
11:53 am 11:53 Mostly Cloudy 75 23.9 53 11.7 46 46 S 20 31 30.17 1022 10 16 0.00 0.00
12:53 pm 12:53 Mostly Cloudy 77 25 53 11.7 43 43 SSW 21 33 30.13 1020 10 16 0.00 0.00
1:53 pm 13:53 Cloudy 76 24.4 53 11.7 45 45 SSW 12 19 30.11 1020 10 16 0.00 0.00
2:53 pm 14:53 Cloudy 76 24.4 53 11.7 45 45 SSW 16 26 30.09 1019 10 16 0.00 0.00
3:53 pm 15:53 Cloudy 76 24.4 54 12.2 47 47 S 14 22 30.10 1019 10 16 0.00 0.00
4:53 pm 16:53 Cloudy 75 23.9 54 12.2 48 48 S 9 15 30.09 1019 10 16 0.00 0.00
5:53 pm 17:53 Cloudy 74 23.3 53 11.7 48 48 S 10 17 30.10 1019 10 16 0.00 0.00
6:53 pm 18:53 Cloudy 73 22.8 53 11.7 50 50 S 8 13 30.10 1019 10 16 0.00 0.00
7:53 pm 19:53 Cloudy 72 22.2 53 11.7 52 52 S 8 13 30.10 1019 10 16 0.00 0.00
8:53 pm 20:53 Mostly Cloudy 72 22.2 53 11.7 52 52 SSE 9 15 30.11 1020 10 16 0.00 0.00
9:53 pm 21:53 Clear 72 22.2 53 11.7 52 52 S 10 17 30.10 1019 10 16 0.00 0.00
10:53 pm 22:53 Mostly Cloudy 72 22.2 53 11.7 52 52 S 12 19 30.13 1020 10 16 0.00 0.00
11:53 pm 23:53 Partly Cloudy 71 21.7 54 12.2 55 55 SSW 15 24 30.14 1021 10 16 0.00 0.00

Powered by AerisWeather